Weather in Erechim

Brazil     27°38′23″S   52°16′44″W
temp.,
°C
wind,
m/s
gust,
m/s
humid.,
%
clouds,
%
prec.,
mm/h
press.,
hPa
HPBL,
m
8 may, sat
sat800:00+6ese24850 0.0 102670
03:00+6ese36920 0.0 102697
06:00+5e24930 0.0 102670
09:00+10ene47745 0.0 1027257
12:00+16ene56573 0.0 1026771
15:00+19ene33460 0.0 10231303
18:00+13ese22720 0.0 102333
21:00+11e24830 0.0 102554
9 may, sun
sun900:00+9e37920 0.0 1025119
03:00+8ene36940 0.0 1024109
06:00+7ene35950 0.0 102587
09:00+12ene46750 0.0 1025232
12:00+19ne44500 0.0 1023690
15:00+21ene22400 0.0 10201205
18:00+15e33680 0.0 102129
21:00+13e22740 0.0 102223
10 may, mon
mon1000:00+10ene34900 0.0 102272
03:00+10ne24920 0.0 102259
06:00+10ne23920 0.0 102255
09:00+15nne2371100 0.0 1022189
12:00+23nnw2447100 0.0 1020825
15:00+21w2360100 0.0 1018436
18:00+17w117640 0.0 101811
21:00+15sw2280100 0.0 101911
11 may, tue
tue1100:00+14sw229486 0.1 101921
03:00+14ssw1194100 0.4 101723
06:00+14s1195100 0.3 101720
09:00+15se2289100 0.9 1018270
12:00+15ese3392100 0.6 1017253
15:00+14s3497100 2.8 1015247
18:00+13s4797100 8.0 1017451
21:00+11se3898100 15.7 1018385
12 may, wed
wed1200:00+10sse379522 0.3 1018381
03:00+7s25965 0.3 1019122
06:00+5s38930 0.0 1021186
09:00+8sse47830 0.0 1022345
12:00+14s35560 0.0 1021812
15:00+15ssw46470 0.0 10191135
18:00+10sw23680 0.0 102033
21:00+7ssw36750 0.0 1023100